STARLINK-11283, 60993

Orbit data source: Space-Track

STARLINK-11283, 60993 is a payload satellite owned by SpaceX/Seattle (US) in LEO that was launched on Thu, 05 Sep 2024 UTC via an FALCON 9 launch vehicle from the Air Force Eastern Test Range (AFETR). Payload-class satellites include a variety of spacecraft equipped with specific instruments for various scientific and technological missions. These include communications satellites like Starlink; space stations such as the ISS; scientific satellites like the Hubble; Earth observation satellites from companies like Planet Labs, Umbra, and HawkEye 360; GPS; miniature CubeSats for education and research; and military/defense satellites.

Loading next visibility...
Identifier
60993, 2024-158D
Orbit
LEO
Country
Flag of USUS
Related business
Manufacturer
SpaceX/Seattle
Mission
Operational Commercial Communications
Bus & Motor
STARLINK V2MD, Unknown motor
Mass
960 kg wet, ~910 kg dry
Launch date (UTC)
2024-09-05 (1 year ago)
Launch vehicle
FALCON 9
Launch site
Air Force Eastern Test Range (AFETR)
Object type
Payload
Rocket body
Debris
Shape & HBR
Box + 2 Pan, 18.1 m
Radar Cross Section
36.964 m², Large (>1 m²)

Expand to show TLE details & history
Last TLE update: 19 hours ago

TLE from 19 hours ago
0 STARLINK-11283
1 60993U 24158D   25350.24367495  .00001299  00000-0  15584-4 0  9990
2 60993  53.1597 332.9794 0001248  85.1403 274.9757 15.69709302 74488
Epoch: 2025-12-16T05:50Z
TLE epoch observation values (Epoch: 2025-12-16T05:50:53.515Z)
Latitude
-0.00006°
Longitude
160.1257°
Altitude
360.571 km
Speed
7.694 km/s
True Right ascension
22h 11m 55s
True Declination
0° 00' 00"
Sunlit
Object was in daylight at epoch
Visualization orbit readout
Latitude
Unknown
Longitude
Unknown
Altitude
Unknown
Speed
Unknown
Apparent Right ascension
Unknown
Apparent Declination
Unknown
Sunlit
N/A
Visualization observer readout
Local Sidereal Time
23:16:05
Azimuth
Unknown
Elevation
Unknown
Doppler factor
Unknown
Orbital elements
Apogee altitude
360.83 km
Perigee altitude
359.149 km
Semi-major axis
6,738.126 km
Eccentricity
0.00012
Inclination
53.1597°
RAAN
332.9794°
Arg. of periapsis
85.1403°
True anomaly
274.96145°
Mean anomaly
274.9757°
Eccentric anomaly
274.96858°
Mean motion
3.92405 °/min
Orbital period
91.74 mins
BSTAR
0.000015584
Loading maneuver chart data...
Computing Atmospheric mass density...
Loading historical data...
Loading historical data...
Loading historical data...
Loading historical data...
Loading historical data...
Loading historical data...
Loading historical data...

Documentation

Showing up to 5 results
|